Погода в Кольцове

Россия / Калужская область     54°26′38″N   36°40′13″E
темп.,
°C
ветер,
м/с
пор.,
м/с
влажн.,
%
обл.,
%
осадки,
мм/ч
давл.,
гПа
погр.,
м
23 апреля, пт
пт2300:00+8ю5128820 0.0 1015285
03:00+6ю512905 0.0 1015275
06:00+6ю5139082 0.1 1015313
09:00+11ю614715 0.4 1015717
12:00+15ю8125141 0.3 10132201
15:00+13ю61264100 1.1 10121638
18:00+6з478992 2.6 1014480
21:00+5ссв1192100 2.7 101355
24 апреля, сб
сб2400:00+5ссв1192100 0.2 101140
03:00+4зсз3596100 2.8 1010642
06:00+4зсз2594100 1.8 1009516
09:00+3з3597100 3.3 1008573
12:00+7з356586 0.8 10081352
15:00+8зюз6662100 2.0 10071276
18:00+4з6889100 1.7 1007666
21:00+3зсз71292100 5.2 1008864
25 апреля, вс
вс2500:00+3з61380100 0.1 1009623
03:000з6138822 0.1 1011423
06:00−1зюз512915 0.0 1011474
09:00+4зюз797126 0.0 10121121
12:00+6зюз71060100 0.8 10111782
15:00+6зюз7105918 1.4 10111482
18:00+5зюз576696 0.2 10101244
21:00+1зюз378423 0.3 1012145
26 апреля, пн
пн2600:000юз38865 0.0 1013186
03:00−1юз49885 0.0 1013225
06:00−1юз49885 0.0 1013308
09:00+4зюз576833 0.0 10131001
12:00+6зюз575298 0.3 10121801
15:00+8з5741100 0.6 10112413
18:00+7зюз244812 0.0 1010613
21:00+2з226967 0.0 101021
27 апреля, вт
вт2700:00+1зюз228094 0.1 101020
03:00+1зюз2384100 0.1 100953
06:00+1з2399100 0.7 1009101
09:00+4зюз347871 1.1 1008647
12:00+7з455399 0.6 10081781
15:00+8зюз464583 0.8 10072004
18:00+6з576187 0.7 10081185
21:00+2зюз35815 0.7 100981